Flag for U.S.A. Weather past 2 weeks in Glennallen, Alaska, U.S.A.

Now
12 °F

Clear.


Feels Like: -1 °F
Forecast: 0 / 16 °F
Wind: 9 mph from Northwest

Location: Gulkana Airport

Current Time: Dec 17, 2014 at 11:04:27 AM

Latest Report: Dec 17, 2014 at 9:53 AM


Visibility: 10 mi

Pressure: 29.71 "Hg

Humidity: 84%

Dew point: 8 °F

Location of GlennallenLocation

Historic Weather in Glennallen — Graph

°F

Glennallen temperature yesterday

Maximum temperature yesterday: 23 °F (at 11:53 PM)
Minimum temperature yesterday: 3 °F (at 4:53 AM)
Average temperature yesterday: 11 °F

Past Weeks' High & Low Weather Summary

 TemperatureHumidityPressure
High25 °F (Dec 2, 5:53 PM)92% (Dec 2, 5:53 PM)30.13 "Hg (Dec 2, 5:53 PM)
Low-12 °F (Dec 4, 9:00 PM)74% (Dec 4, 6:53 PM)28.91 "Hg (Dec 9, 7:00 PM)
Average9 °F82%29.60 "Hg
* Reported Dec 2 9:53 AM — Dec 17 9:53 AM, Glennallen, Weather by CustomWeather, © 2014

Note: Actual official high and low records may vary slightly from our data, if they occured in-between our weather recording intervals... More about our weather records

Advertising

Glennallen weather history for previous 24 hours

 ConditionsComfort  
Time TempWeatherWind HumidityBarometerVisibility
9:53 AM
Dec 17
12 °FClear.9 mph84%29.71 "Hg10 mi
8:53 AM15 °FClear.5 mph83%29.69 "Hg10 mi
7:53 AM21 °FClear.7 mph88%29.63 "Hg10 mi
6:53 AM24 °FClear.10 mph84%29.62 "Hg10 mi
5:53 AM25 °FClear.12 mph85%29.61 "Hg10 mi
4:53 AM25 °FClear.10 mph88%29.60 "Hg10 mi
3:53 AM25 °FClear.10 mph85%29.59 "Hg10 mi
2:53 AM25 °FClear.10 mph88%29.58 "Hg10 mi
1:53 AM25 °FClear.10 mph88%29.57 "Hg10 mi
12:53 AM24 °FClear.10 mph88%29.55 "Hg10 mi
11:53 PM
Dec 16
23 °FClear.12 mph92%29.52 "Hg10 mi
10:53 PM21 °FCold.9 mph88%29.49 "Hg10 mi
9:53 PM8 °FClear.No wind83%29.49 "Hg10 mi
8:53 PM8 °FClear.No wind83%29.48 "Hg10 mi
7:53 PM20 °FClear.7 mph82%29.43 "Hg10 mi
6:53 PM16 °FClear.No wind84%29.44 "Hg10 mi
5:53 PM17 °FOvercast.No wind80%29.42 "Hg10 mi
4:53 PM14 °FMostly cloudy.No wind84%29.41 "Hg10 mi
3:53 PM12 °FPassing clouds.3 mph84%29.40 "Hg10 mi
2:53 PM11 °FPartly sunny.No wind81%29.39 "Hg10 mi
1:53 PM9 °FSunny.No wind84%29.38 "Hg10 mi
12:53 PM8 °FSunny.3 mph83%29.36 "Hg10 mi
11:53 AM8 °FSunny.3 mph87%29.35 "Hg10 mi
Weather by CustomWeather, © 2014

See weather overviewHow to use our weather pages